[[{"header":{"parameterUnit":"m.s-1","parameterCategory":1,"la1":30.2991,"la2":30.254,"lo1":-89.0895,"lo2":-89.0444,"dy":0.0017,"dx":0.0017,"nx":28,"ny":28,"refTime":"2024-08-28T09:00:00:Z","depth":0,"parameterNumber":2,"parameterNumberName":"U-component_of_WINDS"},"data":[0,0,0,0,0,0,0,0,0,0,0,0,0,0,0,0,0,0,0,0,0,0,0,0,0,0,0,0,0,0,0,0,0,0,0,0,0,0,0,0,0,0,0,0,0,0,0,0,0,0,0,0,0,0,0,0,0,0,-2.9913,-2.9912,0,-2.9845,-2.9844,-2.9843,-2.9741,-2.9739,-2.9737,-2.9735,-2.9668,-2.9668,-2.9667,0,0,0,0,0,0,0,0,0,0,0,0,0,-2.9956,-2.9956,-2.9913,-2.9912,-2.9911,-2.9845,-2.9844,-2.9843,-2.9741,-2.9739,-2.9737,-2.9734,-2.9668,-2.9668,-2.9667,0,0,0,0,0,0,0,0,0,0,0,0,0,-2.9918,-2.9956,-2.9913,-2.9852,-2.9846,-2.9845,-2.9844,-2.9843,-2.9741,-2.9739,-2.9736,-2.9733,-2.9668,-2.9668,-2.9667,-2.9721,0,0,-2.9667,-2.9667,0,0,0,0,0,0,0,0,-2.992,-2.9916,-2.9862,-2.9857,-2.985,-2.9798,-2.9834,-2.9802,-2.9742,-2.9781,-2.9735,-2.9732,-2.9714,-2.9709,-2.9703,-2.9718,-2.9715,-2.9667,-2.9667,-2.9667,-2.9667,0,0,0,0,0,0,0,-2.9923,-2.9919,-2.9886,-2.9861,-2.9854,-2.9829,-2.982,-2.9828,-2.9764,-2.9778,-2.977,-2.9763,-2.971,-2.9703,-2.97,-2.9714,-2.9667,-2.9667,-2.9667,-2.9667,-2.9769,-2.9772,0,0,0,0,0,0,-2.9934,-2.9922,-2.9888,-2.9884,-2.9879,-2.983,-2.9821,-2.9818,-2.9763,-2.9752,-2.9766,-2.9759,-2.9705,-2.9701,-2.9698,-2.9756,-2.9667,-2.9667,-2.9667,-2.9766,-2.977,-2.9773,0,0,0,0,0,0,-2.9936,-2.9932,-2.9891,-2.9901,-2.9894,-2.9832,-2.983,-2.9818,-2.9811,-2.9754,-2.9742,-2.9771,-2.9702,-2.9698,-2.9716,-2.9752,-2.9667,-2.9666,-2.9763,-2.9767,-2.9771,-2.9873,0,0,0,0,0,0,-2.9937,-2.9933,-2.9953,-2.9902,-2.9893,-2.991,-2.9832,-2.9818,-2.9811,-2.9801,-2.9756,-2.9746,-2.97,-2.9716,-2.9716,-2.975,-2.9666,-2.9759,-2.9765,-2.977,-2.9866,-2.988,-2.9892,0,0,0,0,0,-2.9939,-2.9985,-2.9954,-2.9951,-2.9916,-2.9912,-2.9907,-2.9853,-2.9814,-2.9833,-2.9797,-2.9747,-2.9749,-2.9719,-2.9717,-2.9752,-2.9757,-2.9763,-2.9769,-2.986,-2.9878,-2.9892,0,0,0,0,0,0,-3.0043,-2.9977,-2.9942,-2.9973,-2.9949,-2.9895,-2.9917,-2.9874,-2.986,-2.9852,-2.9786,-2.9777,-2.9803,-2.9779,-2.9748,-2.9801,-2.9745,-2.9751,-2.9815,-2.9831,-2.9844,-2.9848,-2.9666,0,0,0,0,0,-3.0069,-3.0071,-3.0014,-3.0046,-3.0036,-2.9979,-2.9975,-2.9936,-2.9908,-2.9898,-2.9862,-2.9838,-2.9833,-2.9831,-2.9823,-2.9863,-2.9851,-2.9886,-2.9899,-2.991,-2.9916,-2.9934,-2.9949,-2.9793,-2.9793,-2.9793,0,0,-3.0123,-3.0088,-3.0093,-3.0066,-3.0043,-3.0046,-2.9971,-2.9978,-2.998,-2.9899,-2.9913,-2.9886,-2.9855,-2.9884,-2.9895,-2.9865,-2.9957,-2.9918,-2.9928,-2.9927,-2.9942,-2.9957,-2.997,-2.9798,-2.9797,-2.9796,0,0,-3.0224,-3.0198,-3.0221,-3.0199,-3.0164,-3.0126,-3.0132,-3.0085,-3.0064,-3.0077,-3.0015,-3.0017,-3.001,-2.9989,-2.9978,-3.0071,-3.0025,-3.0071,-3.0139,-3.0157,-3.0169,-3.018,-3.0212,-3.0224,-3.0077,-3.0077,-3.0078,0,-3.0296,-3.0298,-3.0239,-3.0249,-3.0239,-3.0165,-3.0189,-3.017,-3.0136,-3.013,-3.0098,-3.0086,-3.006,-3.0082,-3.0105,-3.0099,-3.0103,-3.0075,-3.0172,-3.0182,-3.0191,-3.0221,-3.0233,-3.0083,-3.0082,-3.0082,-3.0081,0,-3.0388,-3.039,-3.0414,-3.038,-3.0373,-3.039,-3.0334,-3.0334,-3.0295,-3.026,-3.0274,-3.024,-3.0224,-3.0227,-3.0189,-3.0244,-3.0226,-3.0184,-3.0126,-3.0213,-3.0239,-3.025,-3.0091,-3.0089,-3.0087,-3.0086,0,0,-3.0551,-3.0484,-3.0494,-3.0477,-3.0434,-3.0434,-3.0449,-3.0431,-3.0432,-3.0411,-3.042,-3.0415,-3.0376,-3.0363,-3.0323,-3.034,-3.0414,-3.0295,-3.0293,-3.0317,-3.0471,-3.0501,-3.0516,-3.0384,-3.0385,-3.0387,-3.0473,0,-3.0641,-3.066,-3.0607,-3.0639,-3.064,-3.057,-3.0582,-3.0557,-3.0526,-3.0522,-3.0487,-3.0485,-3.0433,-3.0425,-3.0438,-3.0402,-3.0444,-3.0396,-3.0391,-3.0392,-3.04,-3.053,-3.0562,-3.0645,-3.0483,-3.0485,-3.0486,0,-3.0749,-3.0732,-3.0764,-3.0718,-3.0716,-3.0728,-3.0707,-3.0705,-3.0675,-3.0651,-3.0637,-3.059,-3.06,-3.0546,-3.0559,-3.0527,-3.0523,-3.0505,-3.0507,-3.0503,-3.0443,-3.0528,-3.067,-3.0682,-3.0502,-3.0501,-3.05,0,-3.0863,-3.0848,-3.0865,-3.0854,-3.08,-3.081,-3.0788,-3.0755,-3.0748,-3.0731,-3.0726,-3.0711,-3.0702,-3.0691,-3.0642,-3.0607,-3.066,-3.0602,-3.064,-3.0641,-3.0653,-3.0653,-3.0795,-3.0653,-3.0653,-3.0653,-3.0653,0,-3.0969,-3.0991,-3.0915,-3.0926,-3.0948,-3.0888,-3.0912,-3.0884,-3.0855,-3.0859,-3.0798,-3.0803,-3.0737,-3.0735,-3.0697,-3.0713,-3.071,-3.069,-3.0679,-3.0695,-3.0697,-3.069,-3.0682,-3.0656,-3.0655,-3.0655,-3.0654,0,-3.1099,-3.105,-3.1063,-3.1011,-3.0999,-3.1018,-3.0974,-3.0981,-3.0946,-3.0951,-3.0949,-3.0894,-3.0888,-3.0837,-3.082,-3.0794,-3.0825,-3.0804,-3.0835,-3.0827,-3.0867,-3.0864,-3.1009,-3.1024,-3.0874,-3.0876,-3.0877,0,-3.1169,-3.1184,-3.1134,-3.1132,-3.1113,-3.111,-3.1102,-3.1044,-3.1038,-3.1005,-3.1016,-3.1005,-3.0993,-3.0987,-3.0946,-3.0932,-3.091,-3.0961,-3.0907,-3.0922,-3.0909,-3.0908,-3.0909,-3.0973,-3.0975,-3.0976,-3.0977,0,-3.1299,-3.1273,-3.1264,-3.1246,-3.1238,-3.1222,-3.1201,-3.1203,-3.1139,-3.1136,-3.1128,-3.1119,-3.1101,-3.1091,-3.107,-3.1048,-3.1002,-3.0995,-3.1003,-3.1018,-3.1035,-3.1025,-3.0864,-3.0991,-3.099,-3.0989,-3.0988,-3.0988,-3.14,-3.141,-3.1376,-3.1367,-3.1345,-3.1328,-3.1332,-3.1297,-3.1289,-3.127,-3.1236,-3.1234,-3.1203,-3.117,-3.1152,-3.1149,-3.1122,-3.1134,-3.1136,-3.114,-3.1148,-3.1036,-3.1145,-3.1145,-3.1144,-3.1144,-3.1144,0,-3.1525,-3.1499,-3.1492,-3.1465,-3.1459,-3.1416,-3.1391,-3.1388,-3.1386,-3.1361,-3.135,-3.1342,-3.1331,-3.1289,-3.1274,-3.128,-3.1259,-3.1278,-3.1276,-3.1272,-3.1173,-3.1167,-3.1296,-3.1296,-3.1296,-3.1296,-3.1296,-3.1296,-3.1589,-3.1603,-3.1574,-3.1576,-3.155,-3.1547,-3.1536,-3.1519,-3.1499,-3.1492,-3.1482,-3.1455,-3.1422,-3.1405,-3.1393,-3.1381,-3.1378,-3.1404,-3.1385,-3.1294,-3.1279,-3.1265,-3.1259,-3.1404,-3.1405,-3.1483,-3.1484,-3.1485]},{"header":{"parameterUnit":"m.s-1","parameterCategory":1,"la1":30.2991,"la2":30.254,"lo1":-89.0895,"lo2":-89.0444,"dy":0.0017,"dx":0.0017,"nx":28,"ny":28,"refTime":"2024-08-28T09:00:00:Z","depth":0,"parameterNumber":3,"parameterNumberName":"V-component_of_WINDS"},"data":[0,0,0,0,0,0,0,0,0,0,0,0,0,0,0,0,0,0,0,0,0,0,0,0,0,0,0,0,0,0,0,0,0,0,0,0,0,0,0,0,0,0,0,0,0,0,0,0,0,0,0,0,0,0,0,0,0,0,2.5095,2.5096,0,2.5098,2.5098,2.5098,2.504,2.5038,2.5037,2.5035,2.5036,2.5037,2.5038,0,0,0,0,0,0,0,0,0,0,0,0,0,2.5039,2.504,2.5095,2.5096,2.5096,2.5098,2.5098,2.5098,2.504,2.5038,2.5036,2.5034,2.5035,2.5037,2.5039,0,0,0,0,0,0,0,0,0,0,0,0,0,2.5055,2.504,2.5095,2.5067,2.5064,2.5098,2.5098,2.5098,2.504,2.5038,2.5036,2.5033,2.5034,2.5037,2.5039,2.51,0,0,2.5046,2.5047,0,0,0,0,0,0,0,0,2.5054,2.5057,2.5071,2.5069,2.5066,2.5066,2.5078,2.5099,2.5041,2.5049,2.5035,2.5032,2.5048,2.5049,2.5054,2.51,2.51,2.5046,2.5047,2.5048,2.5049,0,0,0,0,0,0,0,2.5053,2.5056,2.5096,2.5071,2.5068,2.5054,2.5053,2.5082,2.5061,2.5048,2.5044,2.5046,2.5046,2.5052,2.5054,2.51,2.5046,2.5048,2.5049,2.505,2.5196,2.5198,0,0,0,0,0,0,2.5056,2.5056,2.5096,2.5097,2.5054,2.5056,2.5056,2.5069,2.5061,2.5058,2.5048,2.5043,2.5049,2.5051,2.5053,2.5124,2.5048,2.505,2.5051,2.5193,2.5196,2.5199,0,0,0,0,0,0,2.5055,2.506,2.5096,2.5075,2.5079,2.506,2.5074,2.507,2.5076,2.506,2.5056,2.5058,2.5048,2.505,2.5089,2.5123,2.5051,2.5053,2.519,2.5194,2.5198,2.5266,0,0,0,0,0,0,2.5053,2.506,2.5083,2.5076,2.508,2.5132,2.5077,2.5072,2.508,2.5074,2.5069,2.5066,2.5046,2.5086,2.5091,2.5125,2.5055,2.5187,2.5192,2.5197,2.526,2.5271,2.5281,0,0,0,0,0,2.5052,2.5101,2.5084,2.5089,2.5108,2.5134,2.5136,2.5113,2.5083,2.5106,2.5096,2.5066,2.5119,2.509,2.5096,2.5131,2.5185,2.5191,2.5196,2.5256,2.5269,2.5281,0,0,0,0,0,0,2.511,2.5099,2.5081,2.513,2.5134,2.5124,2.5152,2.5128,2.5139,2.5133,2.5104,2.5103,2.5146,2.5142,2.5111,2.519,2.5147,2.5154,2.519,2.5203,2.5213,2.5212,2.5057,0,0,0,0,0,2.513,2.5152,2.5141,2.5185,2.5188,2.517,2.5181,2.5163,2.5165,2.5166,2.5159,2.5162,2.5179,2.5191,2.5206,2.526,2.5258,2.5287,2.5298,2.5306,2.5312,2.5341,2.5353,2.5218,2.5218,2.5218,0,0,2.5168,2.5165,2.5181,2.5197,2.5198,2.5222,2.5172,2.5198,2.5215,2.517,2.5206,2.5201,2.5202,2.5249,2.5269,2.5247,2.5349,2.5313,2.532,2.5321,2.5348,2.5361,2.5372,2.5222,2.5221,2.5221,0,0,2.5251,2.5251,2.5288,2.5291,2.5293,2.5281,2.5291,2.5286,2.5281,2.5317,2.5284,2.5304,2.5334,2.5337,2.5342,2.5429,2.5401,2.5435,2.5488,2.5516,2.5527,2.5536,2.5567,2.5578,2.5441,2.5442,2.5442,0,2.5298,2.5333,2.531,2.534,2.5348,2.531,2.5347,2.535,2.5358,2.5364,2.534,2.5378,2.5376,2.5423,2.5445,2.5451,2.546,2.5434,2.5528,2.5537,2.5545,2.5573,2.5585,2.5445,2.5445,2.5445,2.5444,0,2.5391,2.5416,2.5445,2.5455,2.5467,2.55,2.5482,2.5497,2.5479,2.547,2.5508,2.5505,2.5519,2.5529,2.5511,2.5574,2.5561,2.5533,2.5488,2.5562,2.5588,2.5599,2.5451,2.545,2.5449,2.5448,0,0,2.5507,2.5506,2.5517,2.5521,2.5523,2.5542,2.5574,2.5589,2.5602,2.561,2.5635,2.5663,2.5638,2.5644,2.5627,2.5652,2.5721,2.5621,2.5621,2.5639,2.579,2.581,2.5823,2.5704,2.5706,2.5708,2.5789,0,2.5586,2.5642,2.5623,2.5679,2.5702,2.5668,2.5696,2.57,2.5693,2.5711,2.5703,2.5723,2.5689,2.5692,2.5716,2.5708,2.5751,2.5702,2.5726,2.5728,2.5726,2.5837,2.5857,2.5935,2.58,2.5801,2.5803,0,2.5685,2.5698,2.5757,2.5757,2.5766,2.5791,2.5804,2.5823,2.5827,2.582,2.5829,2.5807,2.5838,2.5796,2.5839,2.5806,2.5815,2.5813,2.5816,2.5815,2.5768,2.5838,2.5959,2.597,2.5819,2.5817,2.5816,0,2.5763,2.5796,2.5835,2.584,2.5841,2.586,2.5861,2.5863,2.5874,2.5886,2.5892,2.5907,2.5915,2.5927,2.591,2.5881,2.5955,2.5911,2.5949,2.595,2.5965,2.5964,2.6087,2.5974,2.5974,2.5973,2.5973,0,2.5853,2.589,2.5871,2.5895,2.5935,2.5915,2.5955,2.5953,2.5955,2.5978,2.595,2.5971,2.5948,2.5968,2.5954,2.5992,2.5996,2.599,2.5986,2.5992,2.5993,2.5996,2.599,2.5976,2.5976,2.5975,2.5975,0,2.5945,2.5934,2.5975,2.5974,2.5974,2.6004,2.6002,2.6024,2.6017,2.6046,2.6052,2.6039,2.6061,2.6046,2.6067,2.6058,2.6107,2.6096,2.6106,2.6102,2.6141,2.6137,2.6269,2.6286,2.6163,2.6165,2.6166,0,2.6002,2.603,2.6033,2.6047,2.605,2.6073,2.6085,2.6066,2.6079,2.6088,2.6109,2.6129,2.6144,2.618,2.6172,2.6189,2.6177,2.6223,2.6179,2.6185,2.6177,2.6175,2.6177,2.6231,2.6232,2.6233,2.6234,0,2.6104,2.6098,2.6117,2.6134,2.615,2.6162,2.6172,2.6185,2.6167,2.6183,2.6206,2.6218,2.6241,2.6261,2.6275,2.6275,2.6252,2.6249,2.6258,2.6263,2.6268,2.6265,2.6128,2.6245,2.6244,2.6243,2.6243,2.6242,2.618,2.6204,2.621,2.6232,2.6238,2.6249,2.627,2.6266,2.6285,2.6304,2.6292,2.6319,2.6324,2.6341,2.6344,2.6365,2.6346,2.636,2.6363,2.6367,2.6372,2.6266,2.6368,2.6367,2.6367,2.6367,2.6367,0,2.6279,2.6283,2.6303,2.632,2.6337,2.6317,2.6327,2.6343,2.6368,2.6375,2.6391,2.6418,2.6438,2.6433,2.6451,2.6468,2.6458,2.6474,2.6471,2.6472,2.6388,2.6378,2.6482,2.6482,2.6482,2.6482,2.6482,2.6482,2.6333,2.6372,2.6368,2.641,2.6413,2.644,2.6448,2.6458,2.6464,2.6496,2.6513,2.6511,2.6513,2.6531,2.6549,2.6547,2.6554,2.6573,2.6567,2.6489,2.6477,2.6466,2.6456,2.6575,2.6576,2.6649,2.665,2.665]}]]